contact:dominique.lefevre@mio.osupytheas.fr, maurice.libes@osupytheas.fr, didier.mallarino@osupytheas.fr
Project:EMSO http://www.emso-fr.org/EMSO-France
Depth: 2436.0 m
Title:EMSO Ligure Ouest : Data MII capteur AQUADOPP
Date,Latitude,Longitude,X_East,Y_North,Z_Up,Amplitude_X,Amplitude_Y,Amplitude_Z,Batterie,SoundSpeed,Heading,Pitch,Roll,Pressure,TIS,Speed,Direction
, degrees North, degrees East, m.s-1, m.s-1,m.s-1, 1, 1, 1, Volt, m.s-1, degree, degree, degree, dbar, degree_C, m.s-1, degree
2019-12-19T00:04:03,42.805,6.029,-0.053,0.012,-0.029,107.0,109.0,104.0,13.4,1505.3,327.2,-0.7,1.9,2470.271,13.31,0.054,282.8
2019-12-19T00:07:03,42.805,6.029,-0.04,0.025,-0.027,108.0,110.0,105.0,13.3,1505.3,324.2,-0.7,1.9,2470.286,13.31,0.047,302.0
2019-12-19T00:10:03,42.805,6.029,-0.07,0.017,-0.03,107.0,109.0,104.0,13.3,1505.3,325.1,-0.7,1.8,2470.277,13.32,0.072,283.7
2019-12-19T00:13:03,42.805,6.029,-0.055,0.016,-0.016,108.0,111.0,103.0,13.4,1505.3,327.2,-0.7,1.8,2470.245,13.32,0.057,286.2
2019-12-19T00:16:03,42.805,6.029,-0.057,0.027,-0.032,107.0,110.0,105.0,13.3,1505.3,325.8,-0.7,1.9,2470.241,13.32,0.063,295.3
2019-12-19T00:19:03,42.805,6.029,-0.068,0.006,-0.064,109.0,110.0,104.0,13.4,1505.3,325.5,-0.7,1.8,2470.213,13.32,0.068,275.0
2019-12-19T00:22:03,42.805,6.029,-0.042,0.02,-0.017,108.0,110.0,104.0,13.3,1505.3,327.3,-0.7,1.8,2470.218,13.32,0.046,295.5
2019-12-19T00:25:03,42.805,6.029,-0.053,0.016,-0.033,108.0,110.0,103.0,13.3,1505.3,323.8,-0.8,1.8,2470.225,13.33,0.055,286.8
2019-12-19T00:28:03,42.805,6.029,-0.048,0.018,-0.036,108.0,111.0,103.0,13.3,1505.3,325.4,-0.7,1.8,2470.246,13.33,0.051,290.6
2019-12-19T00:31:03,42.805,6.029,-0.045,0.03,-0.036,110.0,111.0,104.0,13.3,1505.3,324.0,-0.7,1.8,2470.218,13.33,0.054,303.7
2019-12-19T00:34:03,42.805,6.029,-0.057,0.034,-0.028,107.0,111.0,104.0,13.3,1505.3,326.4,-0.7,1.9,2470.212,13.33,0.066,300.8
2019-12-19T00:37:03,42.805,6.029,-0.033,0.023,-0.055,108.0,110.0,104.0,13.4,1505.3,325.4,-0.7,1.8,2470.249,13.33,0.04,304.9
2019-12-19T00:40:03,42.805,6.029,-0.05,0.037,-0.018,107.0,110.0,103.0,13.3,1505.3,325.6,-0.7,1.8,2470.245,13.33,0.062,306.5
2019-12-19T00:43:03,42.805,6.029,-0.038,0.029,-0.048,107.0,112.0,103.0,13.4,1505.3,325.4,-0.7,1.8,2470.294,13.33,0.047,307.3
2019-12-19T00:46:03,42.805,6.029,-0.055,0.011,-0.054,108.0,112.0,104.0,13.4,1505.3,323.3,-0.7,1.8,2470.271,13.33,0.056,281.3
2019-12-19T00:49:03,42.805,6.029,-0.046,0.017,-0.017,108.0,109.0,104.0,13.3,1505.3,324.0,-0.7,1.8,2470.255,13.33,0.049,290.3
2019-12-19T00:52:03,42.805,6.029,-0.063,0.024,-0.047,107.0,110.0,103.0,13.4,1505.3,326.4,-0.7,1.9,2470.245,13.33,0.067,290.9
2019-12-19T00:55:03,42.805,6.029,-0.062,0.026,-0.032,107.0,111.0,103.0,13.4,1505.3,326.6,-0.7,1.8,2470.191,13.33,0.067,292.7
2019-12-19T00:58:03,42.805,6.029,-0.035,0.024,-0.02,106.0,111.0,104.0,13.4,1505.3,327.3,-0.7,1.8,2470.213,13.33,0.042,304.4
2019-12-19T01:04:03,42.805,6.029,-0.06,0.01,-0.033,109.0,112.0,105.0,13.4,1505.3,324.9,-0.7,1.8,2470.279,13.31,0.06,279.5
2019-12-19T01:07:03,42.805,6.029,-0.055,0.022,-0.032,107.0,110.0,104.0,13.3,1505.3,326.9,-0.7,1.9,2470.242,13.31,0.059,291.8
2019-12-19T01:10:03,42.805,6.029,-0.074,0.014,-0.049,108.0,109.0,104.0,13.4,1505.3,324.9,-0.7,1.8,2470.257,13.32,0.075,280.7
2019-12-19T01:13:03,42.805,6.029,-0.058,0.032,-0.035,108.0,112.0,103.0,13.4,1505.3,326.6,-0.7,1.8,2470.298,13.32,0.066,298.9
2019-12-19T01:16:03,42.805,6.029,-0.067,0.02,-0.028,108.0,109.0,105.0,13.3,1505.3,327.2,-0.7,1.8,2470.26,13.32,0.069,286.6
2019-12-19T01:19:03,42.805,6.029,-0.059,0.033,-0.051,108.0,111.0,103.0,13.4,1505.3,326.9,-0.7,1.8,2470.245,13.32,0.067,299.2
2019-12-19T01:22:03,42.805,6.029,-0.081,0.044,-0.032,108.0,111.0,104.0,13.4,1505.3,325.0,-0.7,1.8,2470.264,13.32,0.092,298.5
2019-12-19T01:25:03,42.805,6.029,-0.053,0.038,-0.009,108.0,111.0,103.0,13.4,1505.3,325.1,-0.7,1.8,2470.207,13.32,0.065,305.6
2019-12-19T01:28:03,42.805,6.029,-0.081,0.03,-0.075,107.0,111.0,104.0,13.4,1505.3,323.7,-0.7,1.8,2470.283,13.32,0.086,290.3
2019-12-19T01:31:03,42.805,6.029,-0.059,0.025,-0.002,108.0,111.0,103.0,13.4,1505.3,325.7,-0.7,1.8,2470.254,13.32,0.064,293.0
2019-12-19T01:34:03,42.805,6.029,-0.054,0.031,-0.013,108.0,111.0,103.0,13.4,1505.3,324.3,-0.7,1.8,2470.256,13.32,0.062,299.9
2019-12-19T01:37:03,42.805,6.029,-0.048,0.022,-0.043,108.0,111.0,104.0,13.4,1505.3,324.8,-0.7,1.8,2470.257,13.32,0.052,294.6
2019-12-19T01:40:03,42.805,6.029,-0.063,0.04,-0.049,107.0,110.0,103.0,13.4,1505.3,324.7,-0.7,1.8,2470.264,13.32,0.074,302.4
2019-12-19T01:43:03,42.805,6.029,-0.07,0.025,-0.049,107.0,111.0,104.0,13.4,1505.3,325.4,-0.7,1.8,2470.263,13.32,0.074,289.6
2019-12-19T01:46:03,42.805,6.029,-0.046,0.016,-0.03,108.0,110.0,103.0,13.4,1505.3,325.9,-0.7,1.9,2470.23,13.32,0.048,289.2
2019-12-19T01:49:03,42.805,6.029,-0.073,0.043,-0.053,107.0,111.0,104.0,13.4,1505.3,325.6,-0.7,1.8,2470.238,13.32,0.084,300.5
2019-12-19T01:52:03,42.805,6.029,-0.055,0.026,-0.011,106.0,111.0,103.0,13.4,1505.3,323.0,-0.7,1.8,2470.251,13.32,0.06,295.3
2019-12-19T01:55:03,42.805,6.029,-0.074,0.037,-0.033,107.0,110.0,104.0,13.4,1505.3,326.7,-0.7,1.9,2470.2,13.32,0.082,296.6
2019-12-19T01:58:03,42.805,6.029,-0.058,0.032,0.008,108.0,111.0,103.0,13.3,1505.3,326.4,-0.7,1.8,2470.229,13.32,0.066,298.9
2019-12-19T02:01:03,42.805,6.029,-0.061,0.021,-0.039,109.0,112.0,103.0,13.4,1505.3,324.5,-0.7,1.8,2470.223,13.32,0.064,289.0
2019-12-19T02:04:03,42.805,6.029,-0.081,0.03,-0.046,108.0,112.0,105.0,13.4,1505.3,322.9,-0.8,1.8,2470.247,13.33,0.086,290.3
2019-12-19T02:07:03,42.805,6.029,-0.063,0.026,-0.023,108.0,110.0,104.0,13.4,1505.3,326.2,-0.7,1.8,2470.215,13.33,0.068,292.4
2019-12-19T02:10:03,42.805,6.029,-0.079,0.037,-0.014,107.0,111.0,103.0,13.3,1505.3,328.1,-0.7,1.8,2470.225,13.32,0.087,295.1
2019-12-19T02:13:03,42.805,6.029,-0.069,0.05,-0.014,108.0,110.0,104.0,13.3,1505.3,328.3,-0.7,1.8,2470.22,13.32,0.085,305.9
2019-12-19T02:16:03,42.805,6.029,-0.082,0.034,-0.008,107.0,112.0,104.0,13.3,1505.3,327.9,-0.7,1.8,2470.22,13.32,0.088,292.5
2019-12-19T02:19:03,42.805,6.029,-0.059,0.029,-0.02,108.0,113.0,103.0,13.3,1505.3,324.1,-0.7,1.9,2470.232,13.32,0.065,296.2
2019-12-19T02:22:03,42.805,6.029,-0.075,0.024,-0.035,107.0,111.0,104.0,13.4,1505.3,325.3,-0.7,1.8,2470.214,13.32,0.078,287.7
2019-12-19T02:25:03,42.805,6.029,-0.03,0.052,-0.011,109.0,113.0,103.0,13.4,1505.3,327.2,-0.7,1.9,2470.211,13.32,0.06,330.0
2019-12-19T02:28:03,42.805,6.029,-0.041,0.037,-0.023,108.0,111.0,105.0,13.4,1505.3,326.4,-0.7,1.9,2470.237,13.32,0.055,312.1
2019-12-19T02:31:03,42.805,6.029,-0.076,0.03,-0.046,107.0,113.0,103.0,13.3,1505.3,327.0,-0.8,1.9,2470.21,13.32,0.081,291.5
2019-12-19T02:34:03,42.805,6.029,-0.047,0.039,-0.015,107.0,113.0,103.0,13.4,1505.3,324.9,-0.7,1.9,2470.224,13.32,0.061,309.7
2019-12-19T02:37:03,42.805,6.029,-0.051,0.054,-0.015,107.0,112.0,103.0,13.4,1505.3,324.3,-0.7,1.8,2470.225,13.32,0.074,316.6
2019-12-19T02:40:03,42.805,6.029,-0.035,0.043,-0.024,109.0,112.0,103.0,13.4,1505.3,324.6,-0.7,1.8,2470.189,13.32,0.055,320.9
2019-12-19T02:43:03,42.805,6.029,-0.051,0.054,0.013,107.0,112.0,104.0,13.4,1505.3,324.6,-0.7,1.9,2470.195,13.32,0.074,316.6
2019-12-19T02:46:03,42.805,6.029,-0.048,0.032,-0.02,107.0,113.0,103.0,13.3,1505.3,325.6,-0.7,1.8,2470.24,13.33,0.057,303.7
2019-12-19T02:49:03,42.805,6.029,-0.042,0.023,-0.012,106.0,111.0,103.0,13.4,1505.3,323.9,-0.7,1.8,2470.181,13.32,0.047,298.7
2019-12-19T02:52:03,42.805,6.029,-0.052,0.028,-0.048,107.0,113.0,105.0,13.4,1505.3,323.3,-0.7,1.8,2470.212,13.32,0.059,298.3
2019-12-19T02:55:03,42.805,6.029,-0.073,0.031,-0.025,106.0,114.0,104.0,13.3,1505.3,324.8,-0.7,1.8,2470.222,13.32,0.079,293.0
2019-12-19T02:58:03,42.805,6.029,-0.056,0.042,-0.011,108.0,112.0,104.0,13.3,1505.3,326.6,-0.7,1.8,2470.222,13.32,0.069,306.9
2019-12-19T03:04:03,42.805,6.029,-0.05,0.037,0.005,108.0,112.0,102.0,13.3,1505.3,323.9,-0.8,1.8,2470.252,13.31,0.062,306.5
2019-12-19T03:07:03,42.805,6.029,-0.071,0.023,0.002,108.0,112.0,103.0,13.4,1505.3,325.7,-0.7,1.8,2470.257,13.31,0.074,287.9
2019-12-19T03:10:03,42.805,6.029,-0.047,0.04,-0.021,108.0,111.0,103.0,13.4,1505.3,324.6,-0.7,1.9,2470.23,13.32,0.061,310.4
2019-12-19T03:13:03,42.805,6.029,-0.033,0.034,-0.006,106.0,114.0,104.0,13.4,1505.3,327.3,-0.7,1.8,2470.209,13.32,0.047,315.9
2019-12-19T03:16:03,42.805,6.029,-0.055,0.038,-0.024,107.0,113.0,103.0,13.3,1505.3,326.2,-0.7,1.9,2470.223,13.32,0.066,304.6
2019-12-19T03:19:03,42.805,6.029,-0.067,0.05,-0.006,109.0,113.0,104.0,13.3,1505.3,325.9,-0.7,1.9,2470.176,13.32,0.083,306.7
2019-12-19T03:22:03,42.805,6.029,-0.073,0.045,0.001,108.0,113.0,104.0,13.4,1505.3,323.9,-0.7,1.9,2470.203,13.32,0.085,301.7
2019-12-19T03:25:03,42.805,6.029,-0.068,0.047,-0.019,107.0,113.0,104.0,13.4,1505.3,326.9,-0.7,1.8,2470.163,13.32,0.082,304.7
2019-12-19T03:28:03,42.805,6.029,-0.054,0.031,-0.023,108.0,115.0,103.0,13.4,1505.3,324.8,-0.7,1.8,2470.209,13.32,0.062,299.9
2019-12-19T03:31:03,42.805,6.029,-0.075,0.046,-0.037,108.0,114.0,103.0,13.4,1505.3,327.7,-0.7,1.8,2470.237,13.32,0.087,301.5
2019-12-19T03:34:03,42.805,6.029,-0.034,0.026,0.007,107.0,113.0,104.0,13.3,1505.3,323.3,-0.7,1.9,2470.186,13.32,0.042,307.4
2019-12-19T03:37:03,42.805,6.029,-0.091,0.024,-0.02,106.0,113.0,104.0,13.4,1505.3,323.6,-0.7,1.8,2470.205,13.32,0.094,284.8
2019-12-19T03:40:03,42.805,6.029,-0.079,0.029,-0.007,107.0,112.0,104.0,13.4,1505.3,325.0,-0.7,1.8,2470.209,13.32,0.084,290.2
2019-12-19T03:43:03,42.805,6.029,-0.054,0.038,-0.057,109.0,114.0,103.0,13.4,1505.3,327.0,-0.7,1.8,2470.197,13.32,0.066,305.1
2019-12-19T03:46:03,42.805,6.029,-0.07,0.039,-0.034,108.0,113.0,103.0,13.3,1505.3,324.3,-0.7,1.8,2470.176,13.32,0.08,299.1
2019-12-19T03:49:03,42.805,6.029,-0.062,0.038,-0.018,107.0,113.0,104.0,13.4,1505.3,326.9,-0.7,1.8,2470.217,13.32,0.072,301.5
2019-12-19T03:52:03,42.805,6.029,-0.048,0.046,-0.015,109.0,112.0,104.0,13.3,1505.3,327.2,-0.7,1.8,2470.193,13.32,0.066,313.8
2019-12-19T03:55:03,42.805,6.029,-0.057,0.028,-0.026,108.0,112.0,104.0,13.4,1505.3,325.2,-0.7,1.9,2470.187,13.32,0.063,296.2
2019-12-19T03:58:03,42.805,6.029,-0.049,0.055,-0.002,108.0,112.0,104.0,13.4,1505.3,327.7,-0.7,1.8,2470.17,13.33,0.073,318.3
2019-12-19T04:04:03,42.805,6.029,-0.033,0.044,0.0,107.0,112.0,104.0,13.4,1505.3,326.7,-0.7,1.8,2470.23,13.31,0.055,323.1
2019-12-19T04:07:03,42.805,6.029,-0.044,0.046,-0.003,106.0,113.0,103.0,13.4,1505.3,327.4,-0.7,1.8,2470.213,13.31,0.063,316.3
2019-12-19T04:10:03,42.805,6.029,-0.061,0.028,-0.042,106.0,111.0,103.0,13.4,1505.3,324.6,-0.7,1.8,2470.178,13.32,0.067,294.7
2019-12-19T04:13:03,42.805,6.029,-0.059,0.027,-0.023,107.0,112.0,103.0,13.4,1505.3,323.7,-0.7,1.8,2470.198,13.32,0.064,294.6
2019-12-19T04:16:03,42.805,6.029,-0.046,0.022,0.0,108.0,111.0,105.0,13.3,1505.3,324.8,-0.7,1.8,2470.197,13.32,0.05,295.6
2019-12-19T04:19:03,42.805,6.029,-0.059,0.056,0.01,108.0,112.0,104.0,13.4,1505.3,323.5,-0.7,1.8,2470.181,13.32,0.081,313.5
2019-12-19T04:22:03,42.805,6.029,-0.057,0.033,0.004,107.0,112.0,103.0,13.4,1505.3,325.2,-0.7,1.9,2470.168,13.32,0.065,300.1
2019-12-19T04:25:03,42.805,6.029,-0.044,0.053,-0.002,107.0,113.0,104.0,13.4,1505.3,326.2,-0.7,1.8,2470.181,13.32,0.068,320.3
2019-12-19T04:28:03,42.805,6.029,-0.044,0.058,-0.015,108.0,114.0,102.0,13.4,1505.3,326.9,-0.7,1.8,2470.187,13.32,0.072,322.8
2019-12-19T04:31:03,42.805,6.029,-0.039,0.021,-0.012,107.0,114.0,104.0,13.4,1505.3,327.1,-0.7,1.8,2470.214,13.32,0.044,298.3
2019-12-19T04:34:03,42.805,6.029,-0.036,0.048,-0.011,107.0,112.0,103.0,13.4,1505.3,325.4,-0.7,1.9,2470.174,13.33,0.06,323.1
2019-12-19T04:37:03,42.805,6.029,-0.05,0.032,-0.025,108.0,114.0,104.0,13.4,1505.3,325.7,-0.7,1.8,2470.159,13.32,0.059,302.6
2019-12-19T04:40:03,42.805,6.029,-0.065,0.03,-0.056,108.0,113.0,102.0,13.4,1505.3,326.6,-0.7,1.9,2470.169,13.33,0.071,294.8
2019-12-19T04:43:03,42.805,6.029,-0.061,0.044,-0.072,108.0,111.0,103.0,13.3,1505.3,324.2,-0.7,1.8,2470.204,13.32,0.075,305.8
2019-12-19T04:46:03,42.805,6.029,-0.078,0.039,-0.027,107.0,112.0,103.0,13.4,1505.3,328.5,-0.7,1.9,2470.188,13.32,0.087,296.6
2019-12-19T04:49:03,42.805,6.029,-0.046,0.038,0.011,106.0,113.0,104.0,13.3,1505.3,325.4,-0.7,1.9,2470.163,13.32,0.059,309.6
2019-12-19T04:52:03,42.805,6.029,-0.056,0.045,0.0,108.0,113.0,104.0,13.3,1505.3,327.3,-0.7,1.8,2470.158,13.32,0.071,308.8
2019-12-19T04:55:03,42.805,6.029,-0.035,0.028,-0.015,107.0,114.0,103.0,13.4,1505.3,326.2,-0.7,1.8,2470.111,13.32,0.044,308.7
2019-12-19T04:58:03,42.805,6.029,-0.04,0.031,-0.008,109.0,112.0,104.0,13.4,1505.3,327.8,-0.7,1.8,2470.15,13.32,0.05,307.8
2019-12-19T05:04:03,42.805,6.029,-0.047,0.038,-0.014,108.0,112.0,102.0,13.3,1505.3,326.6,-0.8,1.8,2470.203,13.31,0.06,309.0
2019-12-19T05:07:03,42.805,6.029,-0.041,0.031,0.007,107.0,112.0,105.0,13.4,1505.3,325.8,-0.7,1.8,2470.144,13.31,0.051,307.1
2019-12-19T05:10:03,42.805,6.029,-0.053,0.036,-0.008,108.0,114.0,104.0,13.4,1505.3,327.9,-0.7,1.8,2470.166,13.32,0.064,304.2
2019-12-19T05:13:03,42.805,6.029,-0.035,0.054,0.009,107.0,113.0,104.0,13.3,1505.3,325.5,-0.7,1.9,2470.229,13.32,0.064,327.0
2019-12-19T05:16:03,42.805,6.029,-0.069,0.036,-0.014,108.0,115.0,103.0,13.3,1505.3,323.2,-0.8,1.8,2470.183,13.32,0.077,297.6
2019-12-19T05:19:03,42.805,6.029,-0.054,0.03,-0.021,108.0,115.0,103.0,13.4,1505.3,325.0,-0.8,1.9,2470.194,13.32,0.061,299.1
2019-12-19T05:22:03,42.805,6.029,-0.052,0.038,-0.006,107.0,113.0,103.0,13.4,1505.3,325.7,-0.7,1.8,2470.161,13.32,0.064,306.2
2019-12-19T05:25:03,42.805,6.029,-0.042,0.028,-0.016,108.0,113.0,104.0,13.4,1505.3,326.9,-0.7,1.9,2470.188,13.32,0.05,303.7
2019-12-19T05:28:03,42.805,6.029,-0.046,0.028,0.0,108.0,114.0,104.0,13.4,1505.3,325.4,-0.7,1.8,2470.205,13.32,0.053,301.3
2019-12-19T05:31:03,42.805,6.029,-0.072,0.042,-0.03,108.0,115.0,103.0,13.4,1505.3,326.8,-0.7,1.8,2470.19,13.32,0.083,300.3
2019-12-19T05:34:03,42.805,6.029,-0.067,0.041,-0.009,108.0,116.0,104.0,13.4,1505.3,328.3,-0.7,1.8,2470.185,13.32,0.078,301.5
2019-12-19T05:37:03,42.805,6.029,-0.049,0.033,-0.02,108.0,112.0,104.0,13.3,1505.3,327.0,-0.7,1.8,2470.157,13.33,0.059,304.0
2019-12-19T05:40:03,42.805,6.029,-0.051,0.041,0.013,107.0,113.0,104.0,13.4,1505.3,327.4,-0.7,1.8,2470.162,13.33,0.065,308.8
2019-12-19T05:43:03,42.805,6.029,-0.059,0.023,-0.027,108.0,114.0,104.0,13.3,1505.3,327.8,-0.7,1.8,2470.178,13.33,0.063,291.3
2019-12-19T05:46:03,42.805,6.029,-0.039,0.054,-0.019,108.0,115.0,104.0,13.4,1505.3,326.8,-0.7,1.8,2470.16,13.33,0.066,324.2
2019-12-19T05:49:03,42.805,6.029,-0.048,0.045,-0.042,108.0,113.0,103.0,13.4,1505.3,324.0,-0.7,1.8,2470.198,13.33,0.065,313.1
2019-12-19T05:52:03,42.805,6.029,-0.051,0.022,-0.012,109.0,114.0,103.0,13.3,1505.3,324.7,-0.7,1.8,2470.139,13.33,0.055,293.3
2019-12-19T05:55:03,42.805,6.029,-0.051,0.032,-0.025,109.0,113.0,106.0,13.4,1505.3,326.0,-0.7,1.8,2470.159,13.32,0.06,302.1
2019-12-19T05:58:03,42.805,6.029,-0.052,0.032,-0.015,109.0,114.0,104.0,13.3,1505.3,325.2,-0.7,1.8,2470.162,13.32,0.061,301.6
2019-12-19T06:04:03,42.805,6.029,-0.055,0.025,0.001,108.0,114.0,105.0,13.3,1505.2,327.6,-0.7,1.8,2470.233,13.3,0.06,294.4
2019-12-19T06:07:03,42.805,6.029,-0.056,0.028,-0.017,108.0,113.0,104.0,13.4,1505.3,324.7,-0.7,1.9,2470.162,13.31,0.062,296.6
2019-12-19T06:10:03,42.805,6.029,-0.048,0.048,-0.031,109.0,114.0,103.0,13.3,1505.3,324.1,-0.7,1.8,2470.175,13.32,0.067,315.0
2019-12-19T06:13:03,42.805,6.029,-0.058,0.019,-0.044,107.0,114.0,103.0,13.4,1505.3,325.5,-0.7,1.8,2470.14,13.32,0.061,288.1
2019-12-19T06:16:03,42.805,6.029,-0.049,0.039,-0.004,108.0,113.0,103.0,13.4,1505.3,325.5,-0.8,1.8,2470.175,13.32,0.062,308.5
2019-12-19T06:19:03,42.805,6.029,-0.038,0.044,-0.005,108.0,114.0,105.0,13.3,1505.3,327.0,-0.7,1.8,2470.153,13.32,0.058,319.2
2019-12-19T06:22:03,42.805,6.029,-0.048,0.025,0.004,110.0,115.0,105.0,13.4,1505.3,325.2,-0.7,1.8,2470.12,13.32,0.054,297.5
2019-12-19T06:25:03,42.805,6.029,-0.047,0.033,-0.024,108.0,115.0,104.0,13.4,1505.3,326.0,-0.7,1.9,2470.182,13.32,0.057,305.1
2019-12-19T06:28:03,42.805,6.029,-0.051,0.035,-0.021,108.0,115.0,104.0,13.4,1505.3,326.0,-0.7,1.8,2470.145,13.33,0.061,304.5
2019-12-19T06:31:03,42.805,6.029,-0.049,0.04,-0.025,109.0,112.0,104.0,13.4,1505.3,325.5,-0.7,1.8,2470.14,13.33,0.063,309.2
2019-12-19T06:34:03,42.805,6.029,-0.033,0.03,-0.012,109.0,112.0,104.0,13.4,1505.3,325.8,-0.7,1.8,2470.157,13.33,0.044,312.3
2019-12-19T06:37:03,42.805,6.029,-0.026,0.041,-0.03,108.0,113.0,103.0,13.4,1505.3,324.6,-0.7,1.8,2470.133,13.33,0.048,327.6
2019-12-19T06:40:03,42.805,6.029,-0.055,0.023,-0.05,107.0,113.0,104.0,13.3,1505.3,328.2,-0.7,1.9,2470.151,13.33,0.059,292.7
2019-12-19T06:43:03,42.805,6.029,-0.05,0.035,-0.012,108.0,114.0,105.0,13.4,1505.3,325.5,-0.7,1.8,2470.153,13.33,0.061,305.0
2019-12-19T06:46:03,42.805,6.029,-0.06,0.032,-0.034,108.0,113.0,104.0,13.3,1505.3,327.4,-0.7,1.8,2470.175,13.33,0.067,298.1
2019-12-19T06:49:03,42.805,6.029,-0.049,0.035,-0.009,107.0,113.0,104.0,13.3,1505.3,327.8,-0.7,1.8,2470.162,13.33,0.06,305.5
2019-12-19T06:52:03,42.805,6.029,-0.046,0.018,-0.026,108.0,111.0,105.0,13.3,1505.3,323.3,-0.7,1.8,2470.17,13.33,0.049,291.4
2019-12-19T06:55:03,42.805,6.029,-0.079,0.029,-0.066,108.0,113.0,103.0,13.4,1505.3,326.7,-0.7,1.8,2470.174,13.33,0.084,290.2
2019-12-19T07:04:03,42.805,6.029,-0.045,0.037,0.001,108.0,113.0,104.0,13.3,1505.2,328.4,-0.7,1.9,2470.258,13.29,0.058,309.4
2019-12-19T07:07:03,42.805,6.029,-0.041,0.037,-0.03,108.0,112.0,103.0,13.3,1505.3,326.8,-0.7,1.8,2470.187,13.31,0.055,312.1
2019-12-19T07:10:03,42.805,6.029,-0.051,0.039,-0.028,108.0,113.0,104.0,13.3,1505.3,325.0,-0.7,1.8,2470.215,13.31,0.064,307.4
2019-12-19T07:13:03,42.805,6.029,-0.016,0.026,-0.014,108.0,112.0,105.0,13.3,1505.3,325.2,-0.7,1.8,2470.198,13.32,0.03,328.4
2019-12-19T07:16:03,42.805,6.029,-0.042,0.03,-0.037,109.0,112.0,103.0,13.3,1505.3,327.1,-0.7,1.9,2470.249,13.32,0.051,305.5
2019-12-19T07:19:03,42.805,6.029,-0.028,0.03,-0.019,109.0,111.0,102.0,13.4,1505.3,327.7,-0.6,1.8,2470.126,13.32,0.041,317.0
2019-12-19T07:22:03,42.805,6.029,-0.072,0.05,-0.044,108.0,113.0,104.0,13.3,1505.3,325.9,-0.7,1.8,2470.171,13.32,0.087,304.8
2019-12-19T07:25:03,42.805,6.029,-0.06,0.025,-0.039,108.0,114.0,104.0,13.4,1505.3,323.8,-0.7,1.9,2470.224,13.33,0.064,292.6
2019-12-19T07:28:03,42.805,6.029,-0.056,0.007,-0.019,107.0,112.0,103.0,13.4,1505.3,323.7,-0.7,1.8,2470.192,13.33,0.056,277.1
2019-12-19T07:31:03,42.805,6.029,-0.062,0.037,-0.036,109.0,110.0,105.0,13.3,1505.3,323.3,-0.7,1.8,2470.155,13.33,0.072,300.8
2019-12-19T07:34:03,42.805,6.029,-0.057,0.045,-0.026,108.0,113.0,103.0,13.4,1505.3,326.6,-0.7,1.9,2470.176,13.33,0.072,308.3
2019-12-19T07:37:03,42.805,6.029,-0.074,0.044,-0.013,108.0,114.0,104.0,13.4,1505.3,326.7,-0.7,1.9,2470.182,13.33,0.086,300.7
2019-12-19T07:40:03,42.805,6.029,-0.031,0.036,0.004,109.0,115.0,104.0,13.4,1505.3,327.9,-0.7,1.8,2470.15,13.33,0.047,319.3
2019-12-19T07:43:03,42.805,6.029,-0.034,0.019,-0.005,107.0,112.0,103.0,13.4,1505.3,325.8,-0.7,1.8,2470.197,13.33,0.038,299.2
2019-12-19T07:46:03,42.805,6.029,-0.043,0.033,-0.029,107.0,112.0,103.0,13.4,1505.3,326.8,-0.7,1.8,2470.144,13.33,0.054,307.5
2019-12-19T07:49:03,42.805,6.029,-0.054,0.042,-0.034,107.0,114.0,103.0,13.3,1505.3,324.6,-0.7,1.8,2470.144,13.33,0.068,307.9
2019-12-19T07:52:03,42.805,6.029,-0.036,0.018,-0.02,108.0,112.0,103.0,13.4,1505.3,326.0,-0.7,1.8,2470.164,13.33,0.04,296.6
2019-12-19T07:55:03,42.805,6.029,-0.051,0.033,-0.036,106.0,112.0,103.0,13.4,1505.3,326.1,-0.8,1.8,2470.123,13.33,0.06,302.9
2019-12-19T07:58:03,42.805,6.029,-0.052,0.024,-0.03,108.0,112.0,104.0,13.4,1505.3,327.3,-0.7,1.9,2470.195,13.33,0.057,294.8
2019-12-19T08:04:03,42.805,6.029,-0.048,0.024,-0.005,109.0,113.0,103.0,13.4,1505.3,325.5,-0.7,1.8,2470.211,13.31,0.053,296.6
2019-12-19T08:07:03,42.805,6.029,-0.081,0.006,-0.044,108.0,112.0,105.0,13.4,1505.3,325.0,-0.7,1.8,2470.215,13.31,0.081,274.2
2019-12-19T08:10:03,42.805,6.029,-0.063,0.03,-0.032,107.0,113.0,105.0,13.4,1505.3,324.8,-0.7,1.9,2470.142,13.32,0.069,295.5
2019-12-19T08:13:03,42.805,6.029,-0.066,0.018,-0.017,108.0,112.0,104.0,13.4,1505.3,323.9,-0.7,1.9,2470.148,13.32,0.068,285.3
2019-12-19T08:16:03,42.805,6.029,-0.043,0.016,-0.045,106.0,111.0,104.0,13.4,1505.3,328.4,-0.7,1.8,2470.15,13.32,0.045,290.4
2019-12-19T08:19:03,42.805,6.029,-0.048,0.04,-0.021,109.0,113.0,103.0,13.4,1505.3,324.5,-0.7,1.8,2470.163,13.33,0.062,309.8
2019-12-19T08:22:03,42.805,6.029,-0.051,0.015,-0.044,109.0,112.0,104.0,13.4,1505.3,326.2,-0.7,1.9,2470.179,13.33,0.053,286.4
2019-12-19T08:25:03,42.805,6.029,-0.053,0.022,-0.05,108.0,112.0,104.0,13.4,1505.3,324.0,-0.7,1.9,2470.181,13.33,0.057,292.5
2019-12-19T08:28:03,42.805,6.029,-0.049,0.052,-0.042,107.0,111.0,102.0,13.4,1505.3,326.4,-0.7,1.8,2470.156,13.33,0.071,316.7
2019-12-19T08:31:03,42.805,6.029,-0.061,0.027,-0.039,109.0,113.0,105.0,13.3,1505.3,323.6,-0.7,1.8,2470.166,13.33,0.066,293.9
2019-12-19T08:34:03,42.805,6.029,-0.033,0.036,-0.031,107.0,113.0,104.0,13.4,1505.3,324.3,-0.7,1.8,2470.195,13.33,0.048,317.5
2019-12-19T08:37:03,42.805,6.029,-0.049,0.03,-0.032,107.0,114.0,105.0,13.4,1505.3,327.3,-0.7,1.8,2470.171,13.33,0.057,301.5
2019-12-19T08:40:03,42.805,6.029,-0.041,0.047,-0.041,108.0,112.0,104.0,13.4,1505.3,324.7,-0.7,1.8,2470.241,13.33,0.062,318.9
2019-12-19T08:43:03,42.805,6.029,-0.036,0.017,-0.03,109.0,112.0,105.0,13.3,1505.3,326.6,-0.7,1.8,2470.183,13.33,0.039,295.3
2019-12-19T08:46:03,42.805,6.029,-0.054,0.02,-0.041,108.0,112.0,104.0,13.3,1505.3,325.8,-0.7,1.8,2470.215,13.33,0.057,290.3
2019-12-19T08:49:03,42.805,6.029,-0.041,0.021,-0.016,108.0,113.0,103.0,13.4,1505.3,324.0,-0.7,1.8,2470.202,13.33,0.046,297.1
2019-12-19T08:52:03,42.805,6.029,-0.054,0.018,-0.024,107.0,113.0,104.0,13.4,1505.3,324.5,-0.7,1.9,2470.158,13.33,0.056,288.4
2019-12-19T08:55:03,42.805,6.029,-0.034,0.037,-0.023,107.0,112.0,104.0,13.4,1505.3,324.9,-0.7,1.8,2470.199,13.33,0.05,317.4
2019-12-19T08:58:03,42.805,6.029,-0.066,0.014,-0.073,108.0,112.0,105.0,13.4,1505.3,327.8,-0.7,1.8,2470.2,13.33,0.067,282.0
2019-12-19T09:04:03,42.805,6.029,-0.041,0.042,-0.031,107.0,113.0,103.0,13.4,1505.3,323.8,-0.7,1.8,2470.213,13.31,0.058,315.7
2019-12-19T09:07:03,42.805,6.029,-0.05,0.021,-0.036,109.0,112.0,104.0,13.3,1505.3,324.7,-0.8,1.8,2470.241,13.31,0.054,292.8
2019-12-19T09:10:03,42.805,6.029,-0.044,0.023,-0.041,108.0,112.0,103.0,13.4,1505.3,327.1,-0.7,1.9,2470.211,13.32,0.049,297.6
2019-12-19T09:13:03,42.805,6.029,-0.025,0.009,0.013,109.0,113.0,103.0,13.4,1505.3,326.3,-0.7,1.9,2470.232,13.32,0.026,289.8
2019-12-19T09:19:03,42.805,6.029,-0.018,0.034,-0.034,108.0,112.0,104.0,13.3,1505.3,324.4,-0.8,1.8,2470.262,13.31,0.038,332.1
2019-12-19T09:22:03,42.805,6.029,-0.035,0.026,-0.059,107.0,111.0,104.0,13.4,1505.3,323.4,-0.7,1.8,2470.293,13.31,0.043,306.6
2019-12-19T09:25:03,42.805,6.029,-0.02,0.021,-0.001,109.0,113.0,104.0,13.4,1505.3,324.0,-0.7,1.8,2470.291,13.32,0.028,316.4
2019-12-19T09:28:03,42.805,6.029,-0.033,0.035,-0.018,106.0,112.0,103.0,13.4,1505.3,324.0,-0.8,1.8,2470.268,13.32,0.048,316.7
2019-12-19T09:31:03,42.805,6.029,-0.037,0.017,-0.046,108.0,111.0,103.0,13.4,1505.3,326.3,-0.7,1.9,2470.243,13.32,0.04,294.7
2019-12-19T09:34:03,42.805,6.029,-0.051,0.013,-0.029,108.0,112.0,103.0,13.4,1505.3,325.8,-0.7,1.8,2470.246,13.33,0.052,284.3
2019-12-19T09:37:03,42.805,6.029,-0.024,0.023,0.0,110.0,111.0,104.0,13.4,1505.3,324.9,-0.7,1.8,2470.246,13.33,0.033,313.8
2019-12-19T09:40:03,42.805,6.029,-0.017,0.013,-0.031,107.0,112.0,105.0,13.3,1505.3,325.0,-0.7,1.9,2470.244,13.33,0.021,307.4
2019-12-19T09:43:03,42.805,6.029,-0.039,0.026,-0.032,107.0,112.0,104.0,13.4,1505.3,325.3,-0.7,1.8,2470.244,13.33,0.046,303.7
2019-12-19T09:46:03,42.805,6.029,-0.022,0.025,0.007,108.0,112.0,104.0,13.3,1505.3,327.2,-0.7,1.8,2470.265,13.33,0.033,318.7
2019-12-19T09:49:03,42.805,6.029,-0.024,0.036,-0.021,108.0,111.0,103.0,13.4,1505.3,323.8,-0.7,1.8,2470.27,13.33,0.043,326.3
2019-12-19T09:52:03,42.805,6.029,-0.037,0.028,-0.02,107.0,110.0,104.0,13.4,1505.3,324.5,-0.7,1.9,2470.269,13.33,0.046,307.1
2019-12-19T09:55:03,42.805,6.029,-0.038,0.05,-0.019,108.0,111.0,103.0,13.4,1505.3,327.4,-0.7,1.9,2470.248,13.33,0.062,322.8
2019-12-19T09:58:03,42.805,6.029,-0.046,0.028,-0.052,107.0,113.0,103.0,13.4,1505.3,324.5,-0.7,1.8,2470.258,13.33,0.053,301.3